Temp
-4 -4 -5 -5 -5 -6 -6 -5 -5 -5 -5 -5 -5 -6 -5 -4 -4 -4 -4 -4 -3 -4 -4 -5 -5 -5 -5 -5 -5 -5 -6 -6 -6 -6 -6 -5 -5 -6 -6 -6 -6 -6 -6 -6
-5 -4 -5 -5 -5 -6 -6 -6 -6 -6 -5 -5 -5 -5 -5 -5 -5 -4 -4 -4 -4 -4 -4 -4 -5 -5 -5 -5 -5 -5 -5 -6 -6 -6 -6 -6 -6 -6 -6 -6 -6 -6 -6 -6
-5 -4 -4 -5 -5 -6 -6 -6 -7 -7 -6 -6 -6 -7 -6 -6 -6 -6 -6 -5 -5 -5 -5 -5 -4 -4 -5 -5 -5 -5 -5 -5 -6 -6 -6 -6 -6 -6 -5 -5 -5 -5 -5 -6
-5 -6 -4 -6 -6 -6 -7 -7 -7 -7 -7 -7 -6 -7 -6 -6 -6 -6 -7 -7 -6 -6 -6 -5 -5 -5 -5 -5 -5 -5 -5 -6 -6 -6 -6 -6 -6 -5 -6 -5 -6 -5 -5 -5
-5 -5 -6 -4 -5 -6 -6 -6 -6 -6 -7 -7 -7 -7 -7 -7 -6 -6 -6 -6 -6 -6 -6 -6 -6 -6 -5 -6 -6 -6 -6 -6 -6 -6 -6 -6 -6 -6 -6 -7 -6 -6 -6 -5
-5 -6 -6 -5 -5 -5 -6 -7 -6 -6 -6 -6 -6 -6 -7 -6 -7 -6 -6 -5 -6 -6 -6 -6 -6 -6 -6 -6 -6 -6 -6 -6 -6 -6 -6 -7 -7 -7 -7 -7 -7 -7 -7 -7
-6 -6 -8 -7 -6 -6 -6 -7 -7 -6 -6 -5 -5 -5 -5 -5 -6 -6 -6 -6 -6 -6 -6 -7 -7 -6 -6 -7 -6 -7 -6 -6 -6 -7 -7 -7 -7 -7 -7 -8 -7 -7 -7 -7
-7 -7 -7 -9 -7 -7 -7 -8 -8 -7 -6 -6 -5 -5 -4 -5 -5 -6 -6 -6 -6 -6 -7 -7 -7 -6 -7 -7 -7 -7 -7 -6 -6 -7 -7 -7 -7 -7 -7 -7 -8 -8 -7 -7
-8 -8 -8 -8 -7 -8 -8 -8 -8 -8 -7 -7 -5 -5 -5 -5 -5 -6 -6 -6 -6 -6 -7 -7 -8 -7 -8 -8 -7 -8 -8 -7 -7 -7 -7 -7 -7 -8 -8 -7 -7 -8 -8 -8
-8 -8 -9 -9 -9 -9 -9 -8 -8 -8 -7 -7 -6 -6 -5 -6 -6 -6 -7 -7 -7 -7 -8 -7 -7 -6 -7 -9 -7 -8 -8 -9 -9 -7 -7 -8 -9 -8 -8 -8 -8 -8 -8 -8
-9 -9 -9 -9 -9 -9 -9 -9 -9 -9 -8 -7 -6 -6 -6 -7 -7 -8 -7 -7 -8 -8 -7 -8 -7 -6 -7 -8 -8 -8 -8 -9 -10 -10 -9 -8 -8 -8 -8 -8 -8 -8 -8 -8
-10 -9 -10 -10 -10 -10 -10 -10 -10 -9 -9 -8 -8 -7 -7 -7 -7 -8 -8 -8 -8 -8 -8 -8 -7 -8 -8 -8 -8 -8 -9 -9 -10 -9 -8 -9 -9 -8 -8 -9 -9 -8 -8 -8
-11 -11 -11 -11 -10 -10 -10 -10 -10 -10 -10 -9 -9 -8 -8 -8 -8 -8 -8 -9 -9 -9 -9 -8 -8 -8 -8 -8 -9 -9 -8 -8 -9 -10 -9 -9 -9 -8 -8 -8 -8 -9 -9 -9
-12 -12 -12 -12 -11 -11 -11 -11 -11 -11 -10 -10 -9 -9 -9 -9 -9 -8 -9 -9 -9 -9 -9 -9 -9 -9 -9 -10 -10 -10 -9 -9 -9 -10 -10 -9 -9 -9 -9 -9 -9 -9 -8 -8
-13 -12 -12 -12 -12 -12 -12 -11 -11 -10 -10 -10 -10 -10 -9 -9 -9 -9 -9 -9 -9 -9 -9 -9 -9 -9 -9 -10 -10 -11 -11 -10 -10 -10 -11 -11 -10 -10 -10 -10 -10 -9 -9 -9
-13 -13 -12 -12 -12 -12 -12 -12 -11 -10 -10 -10 -10 -10 -10 -10 -10 -10 -10 -10 -10 -10 -10 -10 -10 -10 -10 -11 -10 -11 -11 -12 -12 -12 -12 -12 -12 -12 -11 -10 -10 -10 -9 -9
-13 -13 -13 -13 -13 -12 -12 -11 -11 -11 -11 -10 -10 -10 -10 -11 -11 -11 -11 -11 -11 -11 -11 -11 -11 -11 -11 -11 -11 -11 -12 -11 -11 -11 -11 -11 -10 -10 -10 -10 -9 -9 -9 -9
-13 -13 -13 -13 -13 -12 -12 -12 -11 -11 -11 -11 -11 -11 -11 -11 -12 -12 -12 -12 -12 -12 -12 -12 -12 -12 -12 -12 -12 -12 -12 -11 -11 -11 -10 -10 -10 -9 -9 -9 -9 -9 -8 -8
-13 -13 -13 -13 -13 -13 -12 -12 -12 -12 -12 -12 -12 -12 -12 -12 -12 -12 -13 -13 -13 -13 -13 -13 -13 -13 -13 -13 -13 -13 -13 -12 -12 -11 -11 -11 -11 -10 -10 -9 -9 -9 -9 -8
-14 -13 -13 -13 -13 -13 -13 -12 -12 -12 -12 -12 -12 -12 -13 -13 -13 -13 -14 -14 -14 -14 -14 -14 -14 -14 -13 -13 -13 -13 -13 -12 -12 -12 -11 -11 -11 -11 -10 -10 -10 -10 -10 -9
-14 -14 -14 -13 -13 -13 -13 -13 -12 -13 -13 -13 -13 -13 -13 -14 -14 -14 -14 -15 -15 -15 -14 -14 -14 -14 -14 -14 -14 -13 -13 -12 -12 -11 -11 -11 -10 -10 -10 -10 -11 -11 -11 -11
-15 -15 -14 -14 -13 -13 -13 -13 -13 -13 -13 -13 -13 -14 -14 -14 -15 -15 -15 -15 -15 -15 -15 -15 -15 -15 -15 -15 -14 -14 -13 -13 -12 -12 -11 -11 -11 -12 -12 -12 -12 -12 -12 -12
-15 -15 -14 -14 -14 -13 -13 -13 -13 -13 -14 -14 -14 -14 -15 -15 -15 -15 -15 -16 -15 -15 -15 -15 -15 -15 -16 -15 -15 -15 -15 -15 -15 -14 -14 -13 -12 -12 -12 -12 -12 -12 -13 -12
-14 -14 -14 -14 -14 -13 -14 -14 -14 -14 -14 -14 -14 -14 -15 -15 -16 -16 -16 -16 -16 -16 -16 -16 -16 -17 -17 -17 -17 -17 -16 -15 -15 -14 -14 -14 -13 -13 -14 -14 -14 -13 -13 -12
-14 -14 -14 -14 -14 -14 -14 -14 -14 -14 -14 -14 -15 -15 -16 -16 -16 -16 -16 -16 -16 -16 -17 -17 -18 -17 -17 -17 -17 -18 -16 -15 -15 -15 -14 -14 -14 -14 -14 -14 -13 -13 -13 -13
-13 -14 -14 -14 -14 -14 -15 -15 -15 -15 -15 -15 -15 -16 -16 -16 -16 -17 -17 -17 -17 -17 -18 -18 -18 -18 -18 -17 -18 -18 -17 -15 -15 -15 -14 -14 -13 -13 -13 -13 -13 -14 -14 -14
Height
5917 5920 5919 5919 5921 5925 5928 5929 5929 5930 5929 5929 5930 5930 5931 5931 5931 5932 5933 5935 5935 5935 5936 5937 5939 5940 5940 5942 5942 5942 5943 5944 5945 5945 5944 5946 5949 5950 5952 5952 5953 5955 5956 5957
5914 5915 5917 5919 5920 5923 5925 5926 5927 5929 5931 5931 5931 5931 5932 5932 5933 5932 5934 5935 5936 5936 5937 5939 5939 5940 5941 5941 5942 5942 5942 5942 5943 5944 5945 5945 5945 5947 5949 5950 5951 5952 5952 5953
5910 5913 5914 5916 5918 5920 5922 5923 5925 5927 5928 5929 5930 5931 5932 5933 5934 5934 5933 5933 5935 5937 5937 5938 5938 5939 5939 5939 5939 5940 5940 5941 5941 5942 5942 5943 5944 5944 5945 5947 5949 5950 5951 5952
5906 5906 5910 5912 5914 5917 5918 5919 5921 5924 5925 5927 5928 5930 5930 5932 5933 5934 5933 5933 5933 5934 5934 5935 5936 5936 5937 5936 5937 5938 5939 5940 5941 5941 5941 5943 5943 5944 5944 5945 5946 5946 5947 5948
5904 5903 5906 5909 5911 5913 5916 5917 5918 5919 5922 5923 5924 5926 5928 5929 5930 5931 5931 5931 5931 5932 5931 5931 5932 5933 5934 5933 5934 5935 5937 5937 5938 5939 5939 5940 5941 5941 5942 5943 5944 5944 5943 5944
5897 5899 5902 5904 5907 5909 5911 5914 5915 5916 5919 5920 5921 5923 5923 5924 5927 5927 5928 5930 5930 5929 5930 5931 5931 5931 5932 5932 5931 5932 5932 5934 5933 5934 5935 5936 5936 5936 5938 5939 5940 5941 5941 5941
5892 5894 5896 5898 5901 5904 5907 5909 5910 5913 5913 5915 5918 5918 5920 5920 5923 5925 5925 5925 5927 5926 5926 5927 5927 5927 5926 5928 5928 5930 5932 5931 5930 5929 5930 5931 5932 5934 5934 5934 5934 5935 5935 5936
5887 5889 5891 5893 5895 5899 5901 5904 5905 5906 5907 5909 5911 5911 5914 5918 5919 5920 5921 5921 5922 5923 5922 5922 5922 5921 5921 5921 5924 5928 5929 5927 5915 5925 5925 5926 5926 5925 5926 5928 5929 5929 5929 5929
5880 5882 5884 5888 5891 5896 5897 5898 5901 5900 5900 5903 5903 5907 5908 5912 5914 5916 5917 5917 5918 5919 5917 5918 5916 5918 5918 5916 5915 5918 5921 5920 5918 5918 5920 5920 5919 5916 5920 5922 5923 5924 5923 5923
5874 5876 5878 5881 5884 5887 5890 5893 5894 5894 5894 5895 5896 5898 5901 5905 5908 5910 5911 5912 5913 5914 5913 5912 5913 5911 5911 5909 5911 5912 5911 5910 5913 5914 5915 5914 5913 5913 5914 5916 5917 5918 5917 5918
5868 5871 5873 5876 5878 5880 5885 5885 5886 5887 5888 5888 5889 5892 5894 5895 5900 5903 5904 5906 5905 5905 5905 5906 5905 5905 5905 5906 5907 5904 5903 5904 5907 5909 5910 5909 5908 5907 5908 5908 5909 5909 5909 5909
5860 5863 5867 5870 5872 5874 5876 5877 5878 5879 5882 5882 5883 5885 5887 5888 5890 5893 5895 5896 5897 5899 5900 5900 5901 5901 5900 5899 5895 5891 5893 5894 5899 5904 5903 5902 5902 5902 5901 5899 5899 5899 5900 5899
5855 5857 5860 5863 5867 5868 5871 5873 5873 5874 5875 5876 5877 5878 5879 5881 5882 5885 5887 5888 5890 5892 5892 5893 5895 5894 5893 5891 5891 5892 5891 5889 5890 5892 5894 5893 5892 5891 5891 5891 5890 5889 5889 5890
5851 5853 5855 5859 5862 5864 5864 5865 5866 5867 5869 5870 5870 5871 5872 5874 5875 5876 5878 5879 5880 5881 5883 5883 5883 5882 5883 5882 5883 5882 5882 5881 5880 5879 5880 5880 5880 5879 5879 5878 5878 5877 5877 5877
5848 5850 5851 5852 5854 5856 5856 5857 5858 5860 5862 5863 5864 5865 5865 5867 5868 5868 5869 5869 5870 5871 5871 5871 5870 5870 5870 5870 5870 5870 5869 5869 5868 5867 5866 5865 5864 5863 5861 5861 5860 5859 5859 5860
5844 5846 5847 5848 5849 5849 5849 5849 5849 5851 5852 5854 5855 5856 5857 5858 5858 5859 5858 5858 5859 5859 5859 5858 5858 5858 5857 5857 5856 5854 5853 5852 5849 5848 5848 5847 5845 5845 5844 5843 5842 5841 5841 5841
5840 5841 5842 5842 5841 5841 5842 5842 5842 5843 5843 5845 5847 5848 5849 5849 5849 5849 5848 5847 5847 5848 5847 5846 5845 5844 5843 5843 5842 5839 5838 5835 5833 5830 5827 5825 5824 5823 5822 5821 5820 5820 5819 5819
5834 5835 5836 5835 5834 5833 5833 5833 5833 5834 5835 5835 5836 5837 5838 5839 5838 5838 5837 5837 5836 5836 5836 5835 5834 5832 5831 5827 5825 5822 5818 5814 5813 5809 5805 5802 5800 5799 5798 5796 5796 5796 5795 5797
5828 5828 5827 5826 5825 5824 5824 5825 5826 5826 5826 5827 5827 5827 5828 5828 5827 5827 5826 5824 5824 5823 5822 5821 5820 5817 5815 5812 5808 5805 5801 5797 5792 5789 5786 5782 5778 5775 5773 5771 5769 5768 5767 5769
5820 5821 5821 5820 5819 5819 5818 5817 5817 5816 5817 5817 5817 5817 5817 5816 5815 5814 5813 5811 5811 5812 5811 5809 5806 5803 5800 5797 5793 5788 5783 5779 5775 5770 5765 5761 5756 5754 5751 5747 5743 5742 5741 5744
5815 5814 5814 5813 5813 5813 5812 5810 5810 5810 5812 5807 5807 5807 5806 5805 5804 5803 5802 5801 5800 5799 5798 5795 5792 5788 5785 5780 5775 5769 5764 5757 5752 5747 5742 5737 5733 5729 5724 5721 5717 5715 5714 5715
5808 5808 5808 5808 5807 5807 5805 5803 5804 5802 5799 5799 5798 5796 5794 5792 5791 5790 5789 5789 5789 5787 5785 5782 5777 5774 5769 5764 5758 5754 5747 5739 5731 5725 5719 5713 5707 5702 5698 5694 5691 5689 5687 5687
5802 5801 5801 5802 5801 5798 5798 5796 5795 5794 5793 5791 5790 5788 5785 5782 5780 5779 5778 5777 5776 5773 5771 5767 5764 5759 5751 5749 5742 5739 5731 5723 5716 5708 5702 5696 5690 5682 5677 5674 5672 5668 5666 5664
5796 5795 5794 5794 5793 5792 5791 5790 5789 5787 5786 5784 5781 5778 5775 5771 5769 5767 5765 5763 5761 5758 5756 5752 5748 5744 5739 5736 5730 5723 5714 5707 5701 5695 5687 5681 5675 5670 5664 5659 5655 5652 5647 5643
5791 5790 5790 5788 5787 5786 5785 5784 5783 5781 5779 5776 5772 5769 5765 5762 5759 5755 5752 5749 5746 5744 5742 5738 5736 5733 5729 5726 5720 5710 5702 5694 5688 5682 5674 5667 5663 5658 5655 5648 5641 5633 5626 5618
5786 5785 5785 5784 5783 5782 5780 5778 5776 5773 5770 5767 5763 5759 5754 5750 5747 5743 5741 5738 5736 5734 5731 5729 5727 5725 5721 5717 5711 5703 5692 5685 5679 5673 5666 5660 5654 5649 5644 5637 5630 5620 5609 5602
Wind_Speed
15 15 15 14 11 10 11 8 8 10 12 14 14 13 11 11 12 11 10 10 9 9 10 11 12 12 12 12 13 12 11 11 12 11 12 10 7 7 8 7 7 5 4 4
13 15 14 16 16 14 12 10 10 10 11 13 13 12 11 9 8 8 8 8 8 9 7 6 8 10 12 12 12 13 14 14 13 12 12 11 12 12 11 12 12 11 9 8
15 17 16 16 16 16 15 16 15 12 10 14 13 13 12 13 11 7 7 7 6 6 6 4 4 6 10 14 16 17 17 17 17 17 16 15 15 15 14 12 13 13 12 11
20 20 17 16 17 16 18 15 18 19 15 16 17 18 17 18 17 13 12 10 10 9 8 7 7 8 8 11 15 18 18 17 17 18 17 17 17 16 14 13 12 14 17 17
23 23 24 18 18 17 17 15 14 18 23 22 20 22 21 21 20 19 20 18 14 13 13 14 15 14 13 14 14 16 16 16 17 17 16 16 16 16 15 17 17 17 17 19
27 28 27 24 20 17 18 16 15 15 19 25 24 24 23 24 23 23 22 20 18 15 15 18 17 17 18 19 17 15 15 15 16 17 16 15 15 18 20 20 20 20 19 20
30 31 29 32 27 23 20 19 21 20 22 22 23 26 24 26 25 25 24 22 21 19 17 17 22 25 22 26 22 19 14 19 19 18 18 19 19 19 22 21 21 21 21 22
33 34 34 38 34 28 25 25 25 25 25 26 24 27 25 23 23 26 27 26 21 23 23 19 20 17 21 28 26 20 17 22 15 23 23 21 21 21 22 24 25 25 24 24
34 35 35 35 33 29 29 29 29 30 30 30 31 29 28 25 25 26 26 26 26 23 26 26 22 20 19 23 23 25 26 26 27 23 20 23 26 17 22 26 25 26 27 27
32 34 36 35 35 34 32 30 29 30 33 34 33 32 32 27 27 27 28 27 26 27 29 31 33 36 36 23 22 26 30 24 23 22 25 27 30 24 22 28 28 28 29 31
33 34 36 35 36 35 31 31 29 27 29 32 34 34 32 31 29 30 29 28 28 29 30 35 27 30 25 27 27 30 28 26 19 19 21 23 25 24 27 27 28 28 30 31
29 32 34 34 31 30 30 27 28 28 27 28 29 31 31 32 30 26 27 25 23 26 27 26 23 28 24 33 34 34 37 33 24 29 32 33 32 31 32 31 33 34 34 37
23 25 26 28 30 29 27 26 27 27 27 27 29 31 28 29 29 26 24 24 24 27 29 30 29 31 35 35 32 35 40 44 40 36 38 41 40 40 40 39 40 41 41 42
13 18 23 22 23 26 29 31 31 30 28 26 28 27 27 26 26 27 27 28 31 33 36 38 41 42 40 39 39 43 45 44 49 50 50 51 52 51 53 52 52 51 50 50
12 13 16 22 24 26 29 31 31 33 33 32 29 28 29 29 30 31 32 34 35 37 39 41 43 44 46 46 46 48 51 53 56 56 57 59 61 61 60 60 60 60 59 59
17 18 16 15 18 21 25 29 29 29 29 29 30 29 30 30 31 33 35 37 39 41 42 45 46 48 50 51 53 54 55 56 60 61 63 65 66 67 67 67 67 68 67 66
24 24 24 25 27 30 28 28 31 30 30 29 30 30 31 32 34 36 39 41 42 43 45 47 49 52 54 55 57 59 61 63 65 68 69 70 70 70 69 68 67 67 69 69
22 23 26 31 35 35 29 25 26 29 31 33 34 35 35 36 37 38 40 43 46 48 50 52 53 55 56 58 60 62 65 67 68 69 70 71 71 71 71 72 71 71 70 69
22 28 30 30 30 31 29 27 26 28 31 33 35 36 37 39 40 43 46 48 50 51 52 54 56 59 61 64 67 68 70 71 71 71 71 72 74 75 74 75 76 76 76 75
23 22 22 27 30 28 28 29 31 31 30 31 32 33 34 37 40 42 45 48 49 51 53 55 57 59 59 60 62 65 69 71 72 72 73 74 77 77 79 80 81 81 80 80
29 31 31 31 29 28 26 27 28 27 28 31 32 33 35 36 38 40 43 44 45 46 47 48 52 56 58 60 62 65 67 69 71 72 72 73 73 75 79 82 82 81 80 79
24 25 24 22 24 26 27 29 29 31 31 30 30 30 32 34 36 37 38 39 41 43 45 48 50 52 55 56 59 61 64 67 71 73 75 76 78 73 65 63 63 66 68 65
25 24 25 24 25 25 24 25 25 23 23 26 28 30 33 36 38 37 36 37 39 41 44 46 48 47 49 50 54 56 59 59 58 59 60 63 55 51 52 50 49 50 54 53
21 19 18 20 20 20 19 20 22 24 24 28 30 33 35 37 37 38 40 42 43 43 42 42 43 42 43 43 43 48 50 49 48 52 51 49 46 43 40 43 46 46 53 60
17 15 13 15 16 16 17 20 21 24 27 30 32 32 33 36 38 39 39 38 39 40 37 33 34 34 34 34 34 37 41 38 35 38 37 34 31 25 29 36 46 51 56 56
12 11 11 12 14 17 20 21 24 28 30 30 30 31 33 34 35 34 35 36 34 28 25 27 28 25 26 20 21 28 27 21 23 27 25 20 22 27 33 37 38 45 40 38
Wind_Direction
190 198 203 207 210 196 193 194 182 183 166 159 151 154 161 165 155 147 137 132 136 141 161 170 179 184 186 189 191 186 187 185 188 187 180 185 197 208 212 197 200 220 191 184
201 200 206 209 216 212 213 203 200 190 189 175 172 172 169 171 168 168 155 146 151 144 139 156 181 198 196 198 200 202 202 201 204 207 204 193 187 201 204 215 218 219 217 202
229 223 206 210 205 210 216 207 214 209 192 183 184 186 189 185 182 186 195 190 192 161 148 166 204 208 211 211 212 212 213 213 212 211 215 209 209 212 218 223 234 237 235 236
235 234 223 207 209 203 216 227 228 213 201 190 196 200 199 199 201 198 197 214 208 206 200 196 223 248 244 230 226 226 225 225 227 227 228 230 228 229 234 237 226 227 235 233
235 238 245 237 229 211 215 232 239 221 209 206 204 209 201 211 209 210 211 208 224 225 233 235 234 238 236 231 228 230 228 232 238 241 239 240 247 251 250 246 245 243 241 247
233 236 239 241 239 241 242 235 242 238 223 218 215 222 223 224 216 219 223 223 222 224 234 237 242 241 239 242 229 220 219 230 230 236 241 243 248 257 256 251 249 251 254 257
227 231 231 240 239 234 238 243 248 247 246 240 235 238 226 229 224 232 237 233 220 232 236 241 252 236 241 231 223 215 209 234 232 228 230 235 243 251 257 254 249 251 252 254
226 233 232 235 242 239 239 244 246 255 251 249 243 245 238 231 234 228 232 240 238 229 238 238 240 239 226 234 226 269 263 240 235 237 238 240 239 239 247 250 251 253 254 257
228 230 235 240 245 242 246 252 253 258 254 252 249 246 249 240 234 230 231 242 247 234 245 243 226 214 237 271 276 238 213 226 235 241 257 243 242 233 247 252 258 262 266 265
230 233 235 238 239 242 242 249 254 254 255 257 256 254 253 249 242 241 242 243 244 240 246 243 245 256 262 224 234 229 230 228 232 245 251 251 264 251 254 257 251 254 259 264
234 233 237 239 241 244 247 251 250 251 251 251 254 254 254 256 250 244 248 255 256 247 248 238 256 260 234 243 241 240 243 239 230 235 247 253 261 261 254 261 261 265 266 268
230 236 236 239 243 243 242 237 242 247 249 251 253 253 255 256 259 256 257 261 260 249 243 241 243 247 235 236 234 241 246 235 254 269 269 262 259 259 258 257 258 261 263 268
233 236 241 240 239 241 243 242 244 244 245 249 252 254 256 256 257 257 255 257 257 255 252 249 241 239 255 264 256 255 259 271 273 263 259 263 264 263 262 258 259 260 261 263
238 244 247 250 249 246 247 243 240 242 244 250 250 250 251 254 256 257 255 253 253 253 252 251 255 259 261 265 262 263 263 258 265 270 270 268 265 263 264 263 263 263 262 264
247 257 252 252 256 258 260 258 252 251 249 250 252 254 254 252 252 253 255 255 255 256 256 257 260 261 261 263 263 263 262 260 263 266 268 267 266 267 267 267 267 268 268 268
253 264 270 260 268 266 270 265 262 255 250 247 246 245 249 253 253 253 255 255 256 257 257 258 261 263 265 267 268 269 269 270 272 273 273 272 271 271 271 271 272 271 270 270
246 255 266 276 283 289 276 263 263 264 264 260 257 256 253 253 254 256 259 260 262 263 265 266 267 268 269 270 271 272 273 273 273 274 274 275 274 274 273 271 268 266 264 263
247 257 265 274 280 284 277 266 258 256 256 260 261 261 261 261 263 262 261 262 263 264 266 268 271 274 277 278 279 279 279 279 279 280 280 280 280 279 277 276 275 274 271 268
259 271 276 279 280 282 278 273 270 265 264 263 264 265 266 266 265 265 267 269 271 273 276 278 279 279 280 280 280 280 280 280 280 280 280 280 280 279 278 277 276 276 274 271
259 265 272 285 284 281 280 280 278 276 273 273 272 271 270 270 268 267 268 268 270 272 274 274 275 276 277 279 280 280 280 280 280 279 278 278 276 276 277 276 274 272 272 272
267 269 271 271 274 277 276 275 274 275 276 275 276 275 273 271 271 270 270 271 272 273 273 275 277 280 283 284 284 283 284 284 284 283 283 283 281 280 278 276 274 273 272 270
279 274 274 273 273 281 281 283 280 280 280 282 284 283 281 280 278 276 275 274 276 279 280 282 284 286 287 286 286 286 287 286 285 284 283 282 282 284 285 282 281 278 274 272
285 282 273 279 282 276 276 278 281 283 285 286 284 281 280 278 277 277 277 278 281 284 287 287 287 287 286 287 287 287 288 290 289 287 285 290 293 288 288 288 285 280 279 275
284 284 282 279 276 280 284 281 282 282 284 289 291 291 286 282 282 282 284 287 289 289 288 288 288 287 289 294 299 297 295 298 300 296 294 297 293 289 283 286 287 283 280 281
280 282 284 284 287 286 284 287 288 292 297 298 297 292 287 287 288 292 294 291 290 291 291 290 291 295 296 298 305 307 304 296 297 296 299 297 302 286 277 286 290 285 293 286
293 292 288 286 285 286 293 298 300 304 302 301 299 298 297 296 295 290 289 289 287 287 289 290 294 291 297 300 318 331 328 303 310 311 311 315 306 300 289 297 303 304 298 294